STARLINK-32886, 62807

Orbit data source: Space-Track

STARLINK-32886, 62807 is a payload satellite owned by SpaceX/Seattle (US) in LEO that was launched on Fri, 24 Jan 2025 UTC via an FALCON 9 launch vehicle from the Air Force Western Test Range (AFWTR). Payload-class satellites include a variety of spacecraft equipped with specific instruments for various scientific and technological missions. These include communications satellites like Starlink; space stations such as the ISS; scientific satellites like the Hubble; Earth observation satellites from companies like Planet Labs, Umbra, and HawkEye 360; GPS; miniature CubeSats for education and research; and military/defense satellites.

Loading next visibility...
Identifier
62807, 2025-018B
Orbit
LEO
Last TLE update
8 hours ago
Origin
Manufacturer
SpaceX/Seattle
Mission
Operational Commercial Communications
Bus & Motor
STARLINK V2M, Unknown motor
Mass
730 kg wet, ~700 kg dry
Launch date (UTC)
2025-01-24 (5 months ago)
Launch vehicle
FALCON 9
Launch site
Air Force Western Test Range (AFWTR)
Object type
Payload
Rocket body
Debris
Shape & HBR
Box + 2 Pan, 29 m
Radar Cross Section
33.884 m², Large (>1 m²)

Expand to show TLE details & history

TLE from 8 hours ago
0 STARLINK-32886
1 62807U 25018B   25183.88613050  .00018429  00000-0  63272-3 0  9996
2 62807  53.1593  29.8248 0000432 115.1309 244.9737 15.30202794 24930
Epoch: 2025-07-02T21:16Z
TLE epoch observation values (Epoch: 2025-07-02T21:16:01.675Z)
Latitude
0.00002°
Longitude
149.65704°
Altitude
476.232 km
Speed
7.629 km/s
True Right ascension
01h 59m 17s
True Declination
0° 00' 00"
Sunlit
Object was in daylight at epoch
Visualization orbit readout
Latitude
52.16242°
Longitude
-138.34467°
Altitude
481.244 km
Speed
7.631 km/s
Apparent Right ascension
05h 56m 23s
Apparent Declination
8° 26' 07"
Sunlit
Object is in daylight
Visualization observer readout
Local Sidereal Time
17:12:40
Azimuth
345.7° N
Elevation
-40.602°
Doppler factor
1
Orbital elements
Apogee altitude
475.759 km
Perigee altitude
475.167 km
Semi-major axis
6,853.6 km
Eccentricity
0.00004
Inclination
53.1593°
RAAN
29.8248°
Arg. of periapsis
115.1309°
True anomaly
Unknown
Mean anomaly
244.9737°
Eccentric anomaly
Unknown
Mean motion
3.8253 °/min
Orbital period
94.11 mins
BSTAR
0.00063272
Loading maneuver chart data...
Loading SW <> Apogee altitude chart data...
Loading historical data...
Loading historical data...
Loading historical data...
Loading historical data...
Loading historical data...
Loading historical data...
Loading historical data...

STARLINK-32886 Visibility forecast

Observer location: undefined°, undefined°

Span
Click to sort rows by Start time (UTC) header in descending order
Start Az.
Max El. time (UTC)
Max El. Az.
Max El.
End time (UTC)
End Az.
6 mins2025-07-03 16:15:09.645Z217.466° SW2025-07-03 16:18:09.645Z118.549° SE42.222°2025-07-03 16:21:09.645Z56.013° ENE
5 mins2025-07-03 22:51:09.645Z327.415° NNW2025-07-03 22:53:09.645Z46.973° ENE39.383°2025-07-03 22:56:09.645Z114.196° SE
|